N0BGS Weather Reports


time (UTC)temp
C
wind
direction
speed
KPH
gust
KPH
rain 1hr
cm
rain 24hr
cm
rain mn
cm
humidity
%
barometer
mb
20260507115003 9 270 1.6 8.0 0.00 1.65 0.33 84 1005.4
20260507114003 8 276 3.2 11.3 0.00 1.65 0.33 87 1006.0
20260507113004 8 287 1.6 6.4 0.00 1.65 0.33 92 1005.7
20260507112003 8 294 0.0 4.8 0.00 1.65 0.33 93 1005.6
20260507111003 7 298 1.6 8.0 0.00 1.65 0.33 93 1005.4
20260507110024 7 275 1.6 11.3 0.00 1.65 0.33 93 1005.5
20260507105003 7 281 1.6 9.7 0.00 1.65 0.33 94 1005.6
20260507104003 7 303 0.0 4.8 0.00 1.65 0.33 94 1005.2
20260507103003 7 304 0.0 4.8 0.00 1.65 0.33 95 1005.4
20260507102003 7 0 0.0 0.0 0.00 1.65 0.33 94 1005.0
20260507101003 6 304 0.0 1.6 0.00 1.65 0.33 95 1005.2
20260507100003 6 0 0.0 0.0 0.00 1.65 0.33 95 1005.2
20260507095024 6 0 0.0 0.0 0.00 1.65 0.33 94 1005.1
20260507094024 6 304 0.0 3.2 0.00 1.65 0.33 94 1004.9
20260507093003 6 0 0.0 0.0 0.00 1.65 0.33 94 1005.0
20260507092003 6 0 0.0 0.0 0.00 1.65 0.33 94 1005.4
20260507091004 6 303 0.0 3.2 0.00 1.65 0.33 94 1004.6
20260507090005 6 300 0.0 4.8 0.00 1.65 0.33 94 1004.6
20260507085004 6 275 1.6 9.7 0.00 1.65 0.33 94 1004.7
20260507084004 7 266 0.0 3.2 0.03 1.65 0.33 94 1004.6
20260507083004 7 275 1.6 6.4 0.03 1.65 0.33 94 1004.8
20260507082004 7 274 3.2 12.9 0.03 1.65 0.33 94 1004.6
20260507081004 7 293 3.2 11.3 0.03 1.65 0.33 94 1004.8
20260507080025 7 288 3.2 12.9 0.03 1.65 0.33 94 1004.4
20260507075025 8 279 1.6 11.3 0.03 1.65 0.33 94 1004.9
20260507074004 8 233 0.0 4.8 0.00 1.63 0.30 95 1004.4
20260507073004 8 272 1.6 9.7 0.00 1.63 0.30 95 1004.6
20260507072025 8 278 1.6 8.0 0.00 1.63 0.30 94 1004.2
20260507071025 8 279 1.6 9.7 0.00 1.63 0.30 94 1004.0
20260507070025 8 264 1.6 6.4 0.03 1.63 0.30 94 1004.0
20260507065004 8 272 1.6 6.4 0.05 1.63 0.30 94 1004.0
20260507064004 8 265 1.6 6.4 0.13 1.63 0.30 94 1003.8
20260507063025 8 267 0.0 4.8 0.15 1.63 0.30 94 1003.9
20260507062004 8 265 0.0 4.8 0.18 1.63 0.30 94 1004.0
20260507061004 8 303 1.6 9.7 0.18 1.63 0.30 94 1003.8
20260507060004 8 276 0.0 3.2 0.20 1.60 0.28 94 1003.8
20260507055004 8 265 3.2 11.3 0.18 1.57 0.25 94 1004.2
20260507054004 8 270 4.8 19.3 0.13 1.50 0.18 94 1004.1
20260507053025 8 283 1.6 17.7 0.10 1.47 0.15 94 1003.8
20260507052025 9 271 3.2 14.5 0.08 1.45 0.13 94 1003.7
20260507051004 9 304 3.2 12.9 0.10 1.45 0.13 94 1003.4
20260507050003 9 285 4.8 17.7 0.08 1.40 0.08 94 1003.7
20260507045025 10 285 6.4 22.5 0.10 1.40 0.08 94 1003.7
20260507044024 10 276 4.8 19.3 0.08 1.37 0.08 94 1003.7
20260507043003 10 290 8.0 20.9 0.08 1.37 0.05 94 1003.5
20260507042003 11 230 3.2 16.1 0.10 1.37 0.05 96 1003.4
20260507041003 11 200 0.0 1.6 0.08 1.35 0.03 96 1002.9
20260507040025 11 200 0.0 3.2 0.05 1.32 0.00 95 1002.9
20260507035024 11 199 0.0 3.2 0.03 1.30 1.30 95 1002.9
20260507034006 11 199 0.0 4.8 0.03 1.30 1.30 95 1003.0
20260507033024 10 179 3.2 16.1 0.03 1.30 1.30 95 1002.9
20260507032003 11 163 4.8 16.1 0.00 1.27 1.27 95 1002.9
20260507031003 11 158 6.4 19.3 0.00 1.27 1.27 95 1002.8
20260507030024 11 151 4.8 16.1 0.00 1.27 1.27 95 1002.9
20260507025003 11 155 6.4 17.7 0.00 1.27 1.27 95 1002.8
20260507024003 11 138 4.8 14.5 0.00 1.27 1.27 95 1003.1
20260507023003 11 143 4.8 12.9 0.03 1.27 1.27 95 1003.3
20260507022003 11 123 3.2 11.3 0.03 1.27 1.27 95 1003.4
20260507021003 11 142 4.8 16.1 0.05 1.27 1.27 95 1003.5
20260507020003 11 130 4.8 14.5 0.08 1.27 1.27 95 1003.7
20260507015003 11 130 4.8 16.1 0.10 1.27 1.27 95 1003.8
20260507014003 11 140 4.8 14.5 0.10 1.27 1.27 95 1004.1
20260507013003 11 149 4.8 16.1 0.08 1.24 1.24 95 1004.1
20260507012003 11 144 4.8 17.7 0.08 1.24 1.24 95 1004.5
20260507011024 11 149 4.8 20.9 0.05 1.22 1.22 95 1004.5
20260507010003 11 140 3.2 12.9 0.03 1.19 1.19 95 1004.7
20260507005003 11 128 3.2 14.5 0.00 1.17 1.17 95 1004.8
20260507004024 11 129 3.2 14.5 0.00 1.17 1.17 95 1005.0
20260507003024 11 126 4.8 12.9 0.03 1.17 1.17 95 1005.1
20260507002024 11 126 3.2 12.9 0.05 1.17 1.17 95 1005.1
20260507001004 11 149 3.2 14.5 0.10 1.17 1.17 95 1005.1
20260507000025 11 151 6.4 16.1 0.13 1.17 1.17 95 1005.3
20260506235025 11 143 6.4 16.1 0.15 1.17 1.17 95 1005.3
20260506234004 11 146 4.8 16.1 0.20 1.17 1.17 95 1005.3
20260506233004 11 132 3.2 11.3 0.30 1.14 1.14 95 1005.2
20260506232004 11 119 3.2 11.3 0.36 1.12 1.12 95 1005.3
20260506231025 11 129 3.2 14.5 0.36 1.07 1.07 95 1005.2
20260506230004 11 124 4.8 14.5 0.41 1.04 1.04 95 1005.3
20260506225004 11 112 4.8 17.7 0.41 1.02 1.02 94 1005.3
20260506224004 11 122 4.8 16.1 0.38 0.97 0.97 94 1005.5
20260506223004 11 124 6.4 19.3 0.30 0.84 0.84 94 1005.6
20260506222004 11 129 3.2 16.1 0.28 0.76 0.76 94 1005.7
20260506221025 11 131 6.4 14.5 0.28 0.71 0.71 94 1005.9
20260506220004 11 133 4.8 12.9 0.25 0.64 0.64 94 1006.1
20260506215025 11 128 4.8 17.7 0.28 0.61 0.61 94 1006.0
20260506214025 11 120 4.8 12.9 0.30 0.58 0.58 94 1005.8
20260506213004 11 138 3.2 19.3 0.33 0.53 0.53 94 1006.1
20260506212004 11 156 4.8 12.9 0.36 0.48 0.48 94 1006.2
20260506211004 11 126 3.2 16.1 0.33 0.43 0.43 94 1006.3
20260506210004 11 128 4.8 14.5 0.33 0.38 0.38 93 1006.2
20260506205004 11 119 4.8 14.5 0.28 0.33 0.33 93 1006.3
20260506204004 11 127 6.4 19.3 0.25 0.28 0.28 92 1006.3
20260506203004 11 160 4.8 19.3 0.20 0.20 0.20 92 1006.7
20260506202004 11 137 4.8 14.5 0.13 0.13 0.13 92 1006.4
20260506201004 11 126 6.4 16.1 0.10 0.10 0.10 91 1006.3
20260506200004 12 125 4.8 17.7 0.05 0.05 0.05 91 1006.3
20260506195004 12 123 4.8 19.3 0.05 0.05 0.05 90 1006.3
20260506194004 12 116 4.8 16.1 0.03 0.03 0.03 89 1006.4
20260506193004 12 106 6.4 20.9 0.00 0.00 0.00 86 1006.8
20260506192004 13 129 6.4 16.1 0.00 0.00 0.00 83 1007.0
20260506191003 13 148 8.0 16.1 0.00 0.00 0.00 81 1006.9
20260506190004 14 130 8.0 20.9 0.00 0.00 0.00 81 1006.8
20260506185003 14 120 6.4 24.1 0.00 0.00 0.00 81 1006.7
20260506184003 14 127 8.0 20.9 0.00 0.00 0.00 81 1006.7
20260506183004 14 125 8.0 19.3 0.00 0.00 0.00 81 1006.7
20260506182003 14 121 8.0 20.9 0.00 0.00 0.00 80 1006.9
20260506181003 15 132 6.4 24.1 0.00 0.00 0.00 79 1006.9
20260506180024 15 135 9.7 19.3 0.00 0.00 0.00 79 1007.2
20260506175003 15 132 9.7 19.3 0.00 0.00 0.00 79 1007.2
20260506174003 15 155 8.0 16.1 0.00 0.00 0.00 78 1007.5
20260506173004 15 138 6.4 20.9 0.00 0.00 0.00 79 1007.5
20260506172003 15 154 8.0 17.7 0.00 0.00 0.00 79 1007.8
20260506171003 15 128 6.4 16.1 0.00 0.00 0.00 80 1007.8
20260506170024 15 137 6.4 19.3 0.00 0.00 0.00 80 1007.9
20260506165024 15 141 4.8 16.1 0.00 0.00 0.00 80 1008.1
20260506164003 14 147 8.0 16.1 0.00 0.00 0.00 80 1008.2
20260506163003 14 144 8.0 19.3 0.00 0.00 0.00 81 1008.3
20260506162003 14 145 9.7 19.3 0.00 0.00 0.00 81 1008.4
20260506161003 14 142 8.0 22.5 0.00 0.00 0.00 81 1008.5
20260506160003 14 146 8.0 24.1 0.00 0.00 0.00 81 1008.6
20260506155003 14 150 8.0 19.3 0.00 0.00 0.00 82 1008.8
20260506154003 14 141 6.4 17.7 0.00 0.00 0.00 82 1008.7
20260506153003 14 115 4.8 17.7 0.00 0.00 0.00 82 1008.3
20260506152003 14 116 8.0 19.3 0.00 0.00 0.00 81 1008.3
20260506151003 15 129 6.4 19.3 0.00 0.00 0.00 80 1008.3
20260506150004 15 140 4.8 16.1 0.00 0.00 0.00 80 1008.7
20260506145004 14 124 9.7 19.3 0.00 0.00 0.00 80 1008.9
20260506144004 15 118 8.0 27.4 0.00 0.00 0.00 78 1009.1
20260506143004 15 148 6.4 19.3 0.00 0.00 0.00 79 1009.3
20260506142004 15 155 6.4 22.5 0.00 0.00 0.00 78 1009.3
20260506141004 15 169 6.4 22.5 0.00 0.00 0.00 78 1009.2
20260506140025 15 145 4.8 12.9 0.00 0.00 0.00 78 1009.1
20260506135004 15 156 6.4 16.1 0.00 0.00 0.00 79 1009.0
20260506134004 14 109 4.8 14.5 0.00 0.00 0.00 78 1009.1
20260506133004 14 154 4.8 12.9 0.00 0.00 0.00 79 1009.2
20260506132005 14 148 6.4 16.1 0.00 0.00 0.00 79 1009.1
20260506131004 13 121 4.8 14.5 0.00 0.00 0.00 81 1009.2
20260506130005 13 127 3.2 12.9 0.00 0.00 0.00 81 1009.5
20260506125004 13 140 4.8 12.9 0.00 0.00 0.00 82 1009.6
20260506124004 13 133 6.4 12.9 0.00 0.00 0.00 83 1009.7
20260506123004 13 154 6.4 17.7 0.00 0.00 0.00 82 1009.7
20260506122004 12 158 3.2 9.7 0.00 0.00 0.00 84 1009.7
20260506121004 12 136 4.8 12.9 0.00 0.00 0.00 84 1009.8
20260506120004 12 144 6.4 14.5 0.00 0.00 0.00 85 1009.8